This is the latest recevied weather packets stored in our database for station/object N2XP-3. If no packets are shown the sender has not sent any weather packets the latest 1 day(s).
| Time | Temp. | Humidity | Pressure | Rain* | Wind** | Luminosity | Snow |
|---|---|---|---|---|---|---|---|
| 1777981087 | 19.44° C | 75% | 1008.6 hPa | 0 mm | 1.34 m/s, 307° | - | - |
| 1777980785 | 18.89° C | 79% | 1008.7 hPa | 0 mm | 1.34 m/s, 235° | - | - |
| 1777980182 | 16.67° C | 88% | 1008.6 hPa | 0 mm | 0 m/s | - | - |
| 1777979878 | 15° C | 94% | 1008.7 hPa | 0 mm | 0 m/s | - | - |
| 1777979611 | 12.78° C | 98% | 1008.6 hPa | 0 mm | 0 m/s | - | - |
| 1777979566 | 12.78° C | 98% | 1008.6 hPa | 0 mm | 0 m/s | - | - |
| 1777979267 | 11.67° C | 95% | 1008.6 hPa | 0 mm | 0 m/s | - | - |
| 1777978965 | 11.11° C | 95% | 1008.4 hPa | 0 mm | 0 m/s | - | - |
| 1777978395 | 11.67° C | 94% | 1008.2 hPa | 0 mm | 0 m/s | - | - |
| 1777978363 | 11.67° C | 94% | 1008.2 hPa | 0 mm | 0 m/s | - | - |
| 1777978061 | 11.67° C | 93% | 1008.3 hPa | 0 mm | 0 m/s | - | - |
| 1777977748 | 11.67° C | 93% | 1008.3 hPa | 0 mm | 0 m/s | - | - |
| 1777977539 | 11.67° C | 93% | 1008.3 hPa | 0 mm | 0 m/s | - | - |
| 1777977444 | 11.67° C | 93% | 1008.3 hPa | 0 mm | 0 m/s | - | - |
| 1777976842 | 11.11° C | 92% | 1008.3 hPa | 0 mm | 0 m/s | - | - |
| 1777976542 | 11.11° C | 92% | 1008.3 hPa | 0 mm | 0 m/s | - | - |
| 1777976243 | 10.56° C | 92% | 1008.3 hPa | 0 mm | 0 m/s | - | - |
| 1777975938 | 10.56° C | 92% | 1008.5 hPa | 0 mm | 0 m/s | - | - |
| 1777975636 | 10.56° C | 92% | 1008.5 hPa | 0 mm | 0 m/s | - | - |
| 1777975011 | 10° C | 91% | 1008.4 hPa | 0 mm | 0.45 m/s, 201° | - | - |
| 1777974709 | 10° C | 91% | 1008.4 hPa | 0 mm | 0 m/s | - | - |
| 1777974410 | 9.44° C | 91% | 1008.3 hPa | 0 mm | 0 m/s | - | - |
| 1777974101 | 9.44° C | 91% | 1008.3 hPa | 0 mm | 0 m/s | - | - |
| 1777973502 | 9.44° C | 90% | 1008.1 hPa | 0 mm | 0 m/s | - | - |
| 1777972899 | 9.44° C | 90% | 1008 hPa | 0 mm | 0 m/s | - | - |
* Rain latest hour (hover to see other rain measurements)
** Current wind speed in m/s (hover to see current wind gust speed)